Theta_e
287 286 286 287 287 287 286 286 286 285 286 286 287 287 288 288 289 289 290 290 291 291 292 292 293 293 294
286 286 286 287 287 286 286 285 285 285 286 286 287 287 287 288 288 289 289 290 290 290 291 291 292 292 293
286 286 287 287 287 285 285 285 285 285 286 286 286 287 287 287 288 288 288 289 289 289 289 290 290 291 291
286 286 287 286 285 285 285 285 285 285 285 286 286 286 286 287 287 287 287 287 288 288 288 289 289 289 290
287 286 285 285 285 285 284 285 285 285 285 285 285 285 286 286 286 286 286 287 287 287 288 288 288 288 289
285 285 285 284 284 284 284 284 284 285 285 284 285 285 285 285 286 286 286 287 287 287 288 288 288 289 289
284 284 284 284 284 284 284 283 284 283 284 284 284 285 285 286 286 287 287 288 287 288 288 288 289 289 289
284 284 284 284 284 283 283 283 284 284 284 284 285 285 285 286 288 289 289 288 287 288 288 288 289 289 289
284 284 284 283 283 283 283 282 283 283 284 283 285 284 285 287 288 287 287 289 289 288 288 289 289 289 289
284 283 283 283 283 283 282 282 282 281 284 283 282 283 283 285 287 289 288 289 289 288 289 289 289 289 290
282 283 283 283 283 283 283 282 282 282 286 282 282 283 282 283 287 290 288 289 289 288 289 289 289 290 290
281 282 282 284 285 285 285 285 285 284 286 285 283 284 283 283 284 289 291 290 289 289 290 290 290 291 291
280 282 283 284 285 284 285 285 286 286 286 286 285 285 284 284 285 287 288 290 289 290 290 290 291 291 292
281 283 284 284 284 284 284 285 285 286 286 286 286 286 286 287 287 289 290 289 290 290 290 291 293 293 292
283 284 284 284 285 285 284 284 284 284 286 287 286 287 288 289 290 291 289 289 290 290 290 291 293 292 291
284 284 284 284 284 285 285 285 283 285 284 286 286 288 289 290 290 290 290 289 290 290 290 291 292 291 290
284 285 284 284 285 285 285 285 285 285 285 285 286 287 287 288 290 291 290 290 290 290 290 291 291 292 291
Wind_Speed
34 32 30 31 30 29 31 34 38 35 35 34 35 36 36 37 38 38 39 39 40 40 41 42 42 44 45
41 38 36 32 31 33 36 33 33 33 33 35 36 36 36 36 37 38 38 38 39 40 41 43 43 43 43
43 42 39 33 36 41 30 31 30 33 33 33 35 36 35 35 37 38 39 40 40 40 41 42 42 43 44
37 44 32 41 38 34 35 35 37 34 38 32 34 33 35 38 38 38 37 37 38 39 40 41 41 42 43
36 36 44 36 36 36 37 41 40 35 39 34 34 43 42 38 36 35 34 34 36 37 38 39 40 40 41
41 35 36 34 37 38 41 41 43 32 32 49 37 43 43 42 37 36 36 36 35 36 37 38 39 40 42
33 32 35 36 40 42 44 43 41 44 36 49 38 44 43 44 40 37 32 32 34 34 36 37 38 39 40
28 32 36 35 37 38 38 40 40 36 29 40 42 42 43 46 37 28 34 32 31 33 35 37 39 40 41
30 30 32 32 28 29 31 32 41 38 40 27 30 44 48 45 36 30 34 35 31 33 35 36 38 38 39
29 27 24 24 23 22 27 30 35 40 28 29 41 29 29 34 38 48 41 36 36 33 34 33 31 32 33
25 23 23 23 23 24 26 28 32 35 37 30 38 39 28 39 49 46 40 41 42 36 30 32 32 32 36
24 26 27 31 30 29 29 28 28 34 32 27 33 34 37 43 45 45 43 41 40 35 36 42 37 31 30
26 28 31 32 32 32 30 28 28 30 29 27 27 30 33 39 44 47 40 45 33 41 42 39 34 28 26
28 31 32 31 32 30 30 30 32 33 28 27 26 27 33 33 34 39 35 36 44 45 40 34 29 21 22
31 31 31 31 31 30 30 30 31 34 35 31 26 28 26 28 33 30 33 35 40 43 42 34 24 23 18
30 30 31 33 33 32 30 31 32 33 33 33 31 33 33 31 18 28 31 34 38 40 40 31 24 24 17
30 30 32 31 30 32 31 31 33 32 31 30 27 29 30 31 36 28 32 34 34 35 38 27 21 19 20
Wind_Direction
301 304 305 306 303 301 299 301 302 297 297 298 296 294 293 291 288 285 282 280 279 277 275 272 269 267 264
304 307 308 308 303 308 304 298 299 300 299 299 298 296 295 291 288 286 284 282 280 278 275 272 270 267 264
301 305 307 307 308 307 308 306 302 302 301 300 298 297 297 294 291 287 283 281 279 278 275 272 269 266 264
297 304 305 307 310 310 309 308 308 308 305 303 301 300 298 294 292 289 286 283 281 278 275 272 269 266 263
301 304 306 310 310 310 307 308 308 310 308 310 302 308 312 309 301 295 289 287 283 281 278 274 271 267 264
304 302 302 305 307 307 308 309 308 314 308 306 307 306 310 311 307 297 293 288 284 282 278 275 271 267 264
298 297 300 302 307 309 305 303 300 305 306 301 308 303 311 315 313 308 300 295 289 285 280 276 272 268 265
295 296 298 304 302 299 298 302 304 305 306 295 314 309 312 313 321 321 330 317 300 291 286 280 273 268 264
302 299 297 298 299 299 301 303 305 308 317 302 308 308 316 322 326 319 311 319 314 300 294 288 284 278 270
308 302 304 305 306 300 298 298 303 309 314 309 311 317 314 312 312 324 327 331 322 306 299 293 288 281 273
306 308 310 309 307 307 308 304 301 296 319 309 307 313 299 303 317 326 328 329 327 318 314 313 299 285 277
307 314 316 323 324 320 317 315 310 308 320 320 307 311 310 305 303 322 329 329 326 320 317 315 311 298 283
312 316 323 325 326 327 325 323 317 321 327 327 319 318 312 300 297 308 312 326 329 325 329 325 316 307 294
315 323 327 328 331 333 328 331 326 329 334 336 331 324 318 315 309 313 324 311 330 333 337 332 329 322 305
327 328 330 331 332 336 333 328 324 327 333 341 340 335 330 332 323 326 320 324 337 342 344 338 343 341 319
332 333 332 332 331 334 334 332 327 330 330 338 336 340 342 340 326 320 333 331 340 351 351 347 351 350 335
333 335 333 332 333 335 334 333 331 333 331 331 335 335 325 318 332 345 332 335 338 349 357 354 348 348 348